Regional Weather Roundup
Issued by NWS Grand Forks, ND

Home | Current Version | Previous Version | Graphics & Text | Print | Product List | Glossary On
Versions: 1 2 3 4 5 6 7 8 9 10 11 12 13 14 15 16 17 18 19 20 21 22 23 24 25 26 27 28 29 30 31 32 33 34 35 36 37 38 39 40 41 42 43 44 45 46 47 48 49 50
000
ASUS43 KFGF 221131
RWRFGF
PRAIRIE TO PINES  WEATHER ROUNDUP
NATIONAL WEATHER SERVICE EASTERN NORTH DAKOTA/GRAND FORKS ND
600 AM CDT MON MAY 22 2017

 **SATELLITE DATA USED TO AUGMENT SKY COVER AT AUTOMATED STATIONS**
 *****  WEATHER ACROSS EASTERN NORTH DAKOTA  *****

CITY           SKY/WX    TMP DP  RH WIND       PRES   REMARKS
GRAND FORKS    CLOUDY    47  44  90 W10       29.83F
GRAND FRKS AFB FAIR      47  42  82 NW9       29.84F
DEVILS LAKE    MOCLDY    45  41  86 NW8       29.89F
FARGO          FAIR      45  42  89 NW9       29.85F
WAHPETON ARPT  FAIR      39  36  87 W6        29.87S
$$

 ***** WEATHER ACROSS CENTRAL AND WESTERN NORTH DAKOTA  *****

CITY           SKY/WX    TMP DP  RH WIND       PRES   REMARKS
BISMARCK       CLOUDY    45  38  76 NE3       29.89S
MINOT          CLOUDY    47  40  76 N6        29.92S
JAMESTOWN      CLOUDY    42  40  92 N6        29.87F
MINOT AFB      CLOUDY    48  42  79 N5        29.92R
GARRISON         N/A     44  38  79 NW6       29.91S
WILLISTON      FAIR      49  39  68 N14       29.97R
DICKINSON      MOCLDY    45  40  82 W12       29.93S
HETTINGER      FAIR      46  42  86 W14       29.97F
$$

 *****  OTHER AIRPORT OBSERVATIONS IN OUR AREA  *****

CITY           SKY/WX    TMP DP  RH WIND       PRES   REMARKS
WALHALLA       NOT AVBL
GRAFTON AIRPOR PTSUNNY   48  45  87 NW12      29.85R
VALLEY CITY AR NOT AVBL
CANDO          NOT AVBL
CAVALIER APRT  PTSUNNY   48  41  76 NW12      29.84R
GWINNER        SUNNY     43  41  93 MISG        N/A
SHEYENNE NWR     N/A     41  40  98 W3        29.95S
ROLLA          PTSUNNY   46  37  71 NW15G21   29.90S
 ***** THE ABOVE OBSERVATIONS ARE NON NWS ARE NOT QUALITY
       CONTROLLED AND MAY MIS-REPORT RAIN FOR SNOW...
$$

  *****  WEATHER ACROSS NORTHERN MINNESOTA  *****

CITY           SKY/WX    TMP DP  RH WIND       PRES   REMARKS
FLAG ISLAND    CLOUDY    45  43  93 NW14      29.75S
WARROAD        CLOUDY    45  41  87 W6        29.77S
ROSEAU           N/A     46  41  81 NW6       29.78S
HALLOCK        CLOUDY    48  45  87 NW12      29.81R
THF RVR FALLS  CLOUDY    44  43  96 W8        29.82R
BAUDETTE       CLOUDY    45  43  93 W8        29.74S
WASKISH        CLOUDY    45  43  93 NW12      29.76S
CROOKSTON      CLOUDY    45  45 100 W8        29.83S
STEPHEN NDAWN    N/A     46  43  87 NW12        N/A
GREENBUSH NDAW   N/A     45  45 100 NW7         N/A
$$
  *****  WEATHER ACROSS CENTRAL AND WEST MINNESOTA  *****

CITY           SKY/WX    TMP DP  RH WIND       PRES   REMARKS
FOSSTON        RAIN      43  43 100 W9        29.82S
BEMIDJI        DRIZZLE   43  43  98 W10       29.78S
PARK RAPIDS    CLOUDY    45  40  82 W12       29.79F
ELBOW LAKE     FAIR      40  40  97 CALM      29.87S
WADENA         CLOUDY    43  39  87 W9        29.83R
DETROIT LAKES  DRIZZLE   43  41  93 NW9       29.84S
MOORHEAD       FAIR      45  39  81 NW8       29.86F
FERGUS FALLS   FAIR      39  39 100 CALM      29.86S
MORRIS MN      FAIR      41  39  93 NW6       29.87S
STAPLES        CLOUDY    43  41  93 W8        29.82S
$$
  *****  WEATHER ELSEWHERE ACROSS MINNESOTA  *****

CITY           SKY/WX    TMP DP  RH WIND       PRES   REMARKS
DULUTH         CLOUDY    45  43  93 W9        29.75F
INTRNTL FALLS  CLOUDY    44  42  93 W5        29.72S
ELY            CLOUDY    43  43 100 W7        29.70S FOG
CLOQUET        CLOUDY    45  41  87 SW9       29.76S
WHEATON        FAIR      43  39  87 CALM      29.90S
BRAINERD       CLOUDY    44  41  89 W8        29.81S
HIBBING        CLOUDY    43  42  97 SW3       29.74S
ALEXANDRIA     FAIR      41  39  93 W7        29.86F
SAINT CLOUD    FAIR      40  39  97 SW6       29.84F
MINNEAPOLIS    MOCLDY    46  41  82 SW7       29.87F
$$

  *****  WEATHER ACROSS SOUTH DAKOTA  *****

CITY           SKY/WX    TMP DP  RH WIND       PRES   REMARKS
SIOUX FALLS    FAIR      49  45  86 W7        29.88F
BROOKINGS      FAIR      42  40  92 CALM      29.88F
WATERTOWN      FAIR      36  35  96 CALM      29.87S
HURON          FAIR      45  41  86 SW6       29.89S
SISSETON         N/A     40  38  93 NW7       29.88F
ABERDEEN       FOG       34  32  92 SW3       29.88R VSB 1/4
MITCHELL       FAIR      47  44  90 W8        29.91F
PIERRE         FAIR      45  41  86 W10       29.91F
MOBRIDGE       MOCLDY    50  42  74 NW12      29.86F
RAPID CITY     MOCLDY    48  41  76 N17G35    30.03R
$$

  *****  SOME WEATHER IN NEARBY STATES *****

CITY           SKY/WX    TMP DP  RH WIND       PRES   REMARKS
GLASGOW MT     LGT RAIN  49  42  77 MISG      30.09R
GREAT FALLS MT MOCLDY    49  42  77 SW7       30.18S
CHEYENNE WY    FAIR      36  30  79 W12       30.19F
SCOTTSBLUFF NE FAIR      38  32  79 NW7       30.12F
OMAHA NE       MOCLDY    53  45  74 SE10      29.97F
DES MOINES IA  FAIR      52  43  71 S9        29.97F
DAVENPORT IA   FAIR      46  42  86 S7        30.02S
CHICAGO IL     FAIR      48  42  80 SW9       30.01R
EAU CLAIRE WI  FAIR      43  41  93 SW6       29.86F
LA CROSSE WI   CLOUDY    47  42  83 SE7       29.92S
$$

  *****  SOME NATIONAL WEATHER *****

CITY           SKY/WX    TMP DP  RH WIND       PRES   REMARKS
LA GUARDIA NY  CLOUDY    60  50  69 E7        30.16F
RALEIGH NC     LGT RAIN  69  68  96 S8G18     30.02S FOG
ATLANTA GA     MOCLDY    69  67  93 CALM      30.07R
NEW ORLEANS LA CLOUDY    71  69  93 NE3       30.07R
OKLAHOMA CITY  MOCLDY    52  49  89 S7        30.10F
ALBUQUERQUE NM FAIR      58  21  24 N7        30.12S
SALT LAKE CITY FAIR      51  45  79 SE5       30.23F
LOS ANGELES CA   N/A     59  58  96 VRB5      29.92S FOG
BOISE ID       FAIR      55  46  71 SE8       30.19R
SEATTLE WA     FAIR      60  49  66 NE7       30.18S
$$

*** WEATHER ACROSS MANITOBA...SASKATCHEWAN AND ONTARIO ***
                ***ONTARIO***

CITY           SKY/WX    TMP DP  RH WIND       PRES   REMARKS
GERALDTON      CLOUDY    45  43  93 S6        29.63S FOG
THUNDER BAY    MOCLDY    45  45 100 SW5       29.67S
SIOUX LOOKOUT  LGT RAIN  43  43 100 N6        29.66F FOG
TORONTO        PTSUNNY   55  54  94 VRB2      29.90S FOG
BIG TROUT LK   CLOUDY    46  36  66 NE7       29.93S
PICKLE LAKE    LGT RAIN  43  43 100 NE10G18   29.69  FOG
DRYDEN         LGT RAIN  43  41  93 N5        29.69S
KENORA         LGT RAIN  43  43 100 NW8       29.73S VSB 1
$$
                *** MANITOBA***

CITY           SKY/WX    TMP DP  RH WIND       PRES   REMARKS
BRANDON        CLOUDY    46  37  71 NW9       29.92S
DAUPHIN        CLOUDY    50  37  62 N9        29.94R
ISLAND LAKE    NOT AVBL
PILOT MOUND      N/A     46  37  71 N10         N/A
THE PAS        MOCLDY    46  34  61 N7        30.04R
THOMPSON       PTCLDY    39  32  75 NE9       30.10R
WINNIPEG       MOCLDY    46  43  87 N14       29.84F
LYNN LAKE      MOCLDY    39  34  81 N5        30.17R
CHURCHILL      FOG       30  30 100 NE12      30.28R VSB 1/4 WCI  21
$$
                ***SASKATCHEWAN***

CITY           SKY/WX    TMP DP  RH WIND       PRES   REMARKS
ESTEVAN        MOCLDY    48  43  81 W5        29.97R
KINDERSLEY     PTCLDY    41  36  81 N8        30.15R
LLOYDMINSTER   CLEAR     41  41 100 NW3       30.18R
PRINCE ALBERT  PTCLDY    43  39  87 VRB2      30.10R
REGINA         PTCLDY    45  41  87 N9        30.02R
YORKTON        PTCLDY    39  36  87 VRB2      30.00R
N. BATTLEFORD  CLEAR     36  36 100 NW3       30.19R
LA RONGE       PTCLDY    36  36 100 CALM      30.13R
SASKATOON      PTCLDY    39  37  93 N5        30.12R
SWIFT CURRENT  CLEAR     43  37  81 N8        30.11R
$$
NOTE: THESE ARE AUTOMATED STATIONS WITH LIMITED QUALITY CONTROL
      "FAIR" INDICATES FEW OR NO CLOUDS BELOW 12,000 FEET WITH NO
      SIGNIFICANT WEATHER AND/OR OBSTRUCTIONS TO VISIBILITY.
      SKY/WX - SKY CONDITION AND SIGNIFICANT WEATHER.
      TMP - AIR TEMPERATURE.    DP   - DEWPOINT TEMPERATURE.
      RH  - RELATIVE HUMIDITY.  PRES - PRESSURE.
      HX  - HEAT INDEX.         WCI  - WIND CHILL INDEX.
$




USA.gov is the U.S. government's official web portal to all federal, state and local government web resources and services.